Weather in Rybinskoye Zaruchye

Russia / Tver Oblast     57°48′54″N   35°59′31″E
temp.,
°C
wind,
m/s
gust,
m/s
humid.,
%
clouds,
%
prec.,
mm/h
press.,
hPa
HPBL,
m
25 february, thu
thu2500:00−9ssw4995100 1.3 1020291
03:00−4ssw51296100 5.6 1016464
06:00+1wsw413100100 1.8 1010471
09:00+2w414100100 1.9 1010535
12:00+2w413100100 0.0 1010517
15:00+2wnw311100100 0.0 1012458
18:00+1w29100100 0.0 1011348
21:00+1wsw2799100 0.2 1011179
26 february, fri
fri2600:00+2w39100100 0.8 1010240
03:00+2wsw39100100 1.5 1009244
06:00+2wsw412100100 1.1 1005425
09:00+2wsw51499100 1.3 1002496
12:00+3wsw51499100 1.1 999698
15:00+1w6149299 1.3 9991201
18:00+1w71497100 0.7 9971072
21:00+1wnw71697100 1.6 9981292
27 february, sat
sat2700:00+1wnw71496100 0.5 9981052
03:00+1wnw61393100 0.6 999928
06:000nw61297100 0.6 1000967
09:00−5n51190100 1.3 1003680
12:00−6n4988100 0.0 1006545
15:00−5n488999 0.1 1009609
18:00−7n31093100 0.0 1011536
21:00−7n3119499 0.1 1014531
28 february, sun
sun2800:00−8n279698 0.1 1016300
03:00−9nnw279696 0.1 1018264
06:00−9nnw279786 0.1 1018221
09:00−7nnw389593 0.1 1019363
12:00−3nnw3692100 0.1 1020536
15:00−2nw358999 0.1 1020620
18:00−3nw2590100 0.0 1021225
21:00−3w2493100 0.1 1022129
1 march, mon
mon100:00−6w229387 0.0 102330
03:00−7wsw239348 0.0 102431
06:00−4wsw279781 0.1 1025224
09:00−2wnw389691 0.1 1025344
12:000w379699 0.0 1025565
15:00+1w51094100 0.0 1024637
18:00+1w51294100 0.0 1022669
21:00+1w51393100 0.0 1020616